Location: Artiguedieu
(43.5000°N, 0.5454°E)
Time: 09:32:15
(UTC+00:00)

deb Explorer IX - All Passes

Search period start: 31 July 2021 00:00
Search period end: 10 August 2021 00:00
Orbit: 543 x 1094 km, 38.8° (Epoch: 30 July)

Date Brightness Start Highest point End Pass type
(mag) Time Alt. Az. Time Alt. Az. Time Alt. Az.
31 Jul - 12:30:56 10° SSW 12:34:38 22° SSE 12:38:46 10° E daylight
31 Jul - 14:15:46 10° WSW 14:20:46 48° SSE 14:26:38 10° E daylight
31 Jul - 16:01:54 10° W 16:07:27 54° S 16:13:54 10° ESE daylight
31 Jul - 17:48:37 10° W 17:54:09 34° SSW 18:00:18 10° SE daylight
31 Jul - 19:37:29 10° WSW 19:40:26 13° SW 19:43:30 10° SSW daylight
01 Aug - 12:07:03 10° SSW 12:10:34 21° SSE 12:14:28 10° ESE daylight
01 Aug - 13:51:49 10° WSW 13:56:39 47° SSE 14:02:19 10° E daylight
01 Aug - 15:37:54 10° W 15:43:18 53° S 15:49:34 10° ESE daylight
01 Aug - 17:24:35 10° W 17:29:57 33° SSW 17:35:57 10° SE daylight
01 Aug - 19:13:28 10° WSW 19:16:14 13° SW 19:19:06 10° SSW daylight
02 Aug - 11:43:09 10° SSW 11:46:30 20° SSE 11:50:11 10° ESE daylight
02 Aug - 13:27:52 10° WSW 13:32:33 46° SSE 13:38:01 10° E daylight
02 Aug - 15:13:56 10° W 15:19:08 52° S 15:25:14 10° ESE daylight
02 Aug - 17:00:34 10° W 17:05:46 32° SSW 17:11:36 10° SE daylight
02 Aug - 18:49:29 10° WSW 18:52:02 12° SW 18:54:40 10° SSW daylight
03 Aug - 11:19:14 10° SSW 11:22:25 19° SSE 11:25:54 10° ESE daylight
03 Aug - 13:03:55 10° WSW 13:08:27 44° SSE 13:13:43 10° E daylight
03 Aug - 14:49:57 10° W 14:54:59 51° S 15:00:54 10° ESE daylight
03 Aug - 16:36:34 10° W 16:41:34 32° SSW 16:47:15 10° SE daylight
03 Aug - 18:25:33 10° WSW 18:27:49 12° SW 18:30:11 10° SSW daylight
04 Aug - 10:55:19 10° SSW 10:58:21 18° SSE 11:01:38 10° ESE daylight
04 Aug - 12:39:58 10° WSW 12:44:21 43° SSE 12:49:25 10° E daylight
04 Aug - 14:25:59 10° W 14:30:51 50° S 14:36:33 10° ESE daylight
04 Aug - 16:12:33 10° W 16:17:23 31° SSW 16:22:53 10° SE daylight
04 Aug - 18:01:39 10° SW 18:03:37 11° SW 18:05:39 10° SSW daylight
05 Aug - 10:31:23 10° SSW 10:34:16 18° SSE 10:37:22 10° ESE daylight
05 Aug - 12:16:01 10° WSW 12:20:15 42° SSE 12:25:08 10° E daylight
05 Aug - 14:02:00 10° W 14:06:43 49° S 14:12:13 10° ESE daylight
05 Aug - 15:48:34 10° W 15:53:13 30° SSW 15:58:30 10° SE daylight
05 Aug - 17:37:52 10° SW 17:39:25 11° SW 17:41:02 10° SSW daylight
06 Aug - 10:07:26 10° SSW 10:10:12 17° SSE 10:13:08 10° ESE daylight
06 Aug - 11:52:02 10° WSW 11:56:10 41° SSE 12:00:52 10° E daylight
06 Aug - 13:38:01 10° W 13:42:35 48° S 13:47:53 10° ESE daylight
06 Aug - 15:24:34 10° W 15:29:02 29° SSW 15:34:07 10° SE daylight
06 Aug - 17:14:13 10° SW 17:15:13 10° SW 17:16:15 10° SSW daylight
07 Aug - 09:43:28 10° S 09:46:07 17° SSE 09:48:55 10° ESE daylight
07 Aug - 11:28:03 10° WSW 11:32:05 40° SSE 11:36:36 10° E daylight
07 Aug - 13:14:02 10° WSW 13:18:27 47° S 13:23:33 10° ESE daylight
07 Aug - 15:00:34 10° W 15:04:52 28° SSW 15:09:45 10° SE daylight
08 Aug - 09:19:27 10° S 09:22:02 16° SSE 09:24:42 10° ESE daylight
08 Aug - 11:04:03 10° WSW 11:07:59 39° SSE 11:12:20 10° E daylight
08 Aug - 12:50:02 10° WSW 12:54:20 46° S 12:59:15 10° ESE daylight
08 Aug - 14:36:35 10° WSW 14:40:42 27° SSW 14:45:22 10° SE daylight
09 Aug - 08:55:26 10° S 08:57:57 16° SSE 09:00:31 10° ESE daylight
09 Aug - 10:40:01 10° WSW 10:43:54 39° SSE 10:48:06 10° E daylight
09 Aug - 12:26:02 10° WSW 12:30:12 45° S 12:34:57 10° ESE daylight
09 Aug - 14:12:35 10° WSW 14:16:33 26° SSW 14:21:00 10° SE daylight
